Theta_e
307 300 299 299 300 303 304 303 302 302 301 300 300 298 297 297 298 301 302 303 304 301 299 299 300 300 301 303 305 306 309 308 307 308 307 308 309 310 310 313 319 319 321 329 332 333 333 334 335 335 334 333 335 334 335 334 335 336 335 337 336 338 339 336 334 334 334 334 333 337 337 336 337 335 337 338 338 336 337 338 336 338 338 339 339 340
306 300 300 303 305 304 304 304 303 302 302 300 299 298 296 297 296 300 301 303 304 300 298 300 300 300 301 303 305 306 307 306 306 308 309 310 310 312 314 315 318 322 328 331 331 332 333 332 334 334 333 334 331 332 333 334 334 335 336 336 336 337 337 338 338 339 340 337 336 335 332 333 332 330 332 331 335 337 337 339 339 339 342 338 336 339
302 299 303 305 307 306 305 304 304 302 301 301 299 298 296 297 299 302 302 303 302 300 298 300 298 299 301 303 305 305 305 308 309 312 312 313 313 316 315 316 319 324 326 328 329 332 331 332 332 333 333 333 332 332 333 334 334 335 335 335 336 336 336 337 339 337 337 339 337 339 336 336 334 340 338 334 335 337 335 339 336 336 338 338 334 334
298 302 305 308 307 304 304 304 303 302 302 301 299 297 295 298 297 293 300 302 303 301 298 300 298 299 302 304 305 307 305 308 310 312 313 314 314 314 316 317 316 316 319 323 326 328 330 330 332 333 331 332 333 332 332 334 334 334 334 335 335 335 337 338 339 338 340 340 339 342 340 340 337 334 336 335 335 331 332 332 335 333 335 334 332 333
298 304 308 307 306 305 302 303 302 300 298 301 300 298 297 298 298 298 297 300 302 302 302 300 297 297 300 300 301 305 310 311 311 313 313 314 315 316 317 320 321 318 318 317 321 326 329 329 330 332 332 333 332 331 332 333 333 333 334 335 335 335 337 338 339 340 341 340 340 339 340 338 333 333 333 332 331 332 332 331 332 335 337 333 331 338
303 307 309 306 306 305 303 300 301 299 297 298 302 300 299 300 299 300 300 299 296 295 299 298 291 292 299 300 302 305 308 308 310 310 310 312 314 316 315 317 317 319 321 321 320 320 325 329 331 332 333 333 332 332 334 334 335 335 335 334 336 335 338 337 338 340 340 338 338 336 332 329 329 329 330 330 327 326 328 325 333 331 329 332 336 332
303 308 307 305 304 303 302 301 303 302 298 297 299 302 301 300 300 299 298 297 292 290 297 303 291 288 298 298 301 305 306 306 309 309 310 311 312 313 313 315 315 317 320 322 322 322 325 328 330 331 332 333 331 332 335 335 336 335 336 335 336 335 336 338 338 340 339 337 336 334 331 330 329 329 331 333 333 333 330 331 332 333 335 330 333 333
306 305 305 304 303 301 299 298 302 300 296 294 302 302 301 300 299 298 299 297 295 299 300 300 297 291 292 297 302 305 304 305 306 308 309 310 311 312 314 314 315 315 317 319 318 321 325 327 328 330 331 334 333 334 335 336 336 335 336 334 336 335 336 336 337 338 339 335 335 333 332 331 332 331 332 331 332 332 331 331 329 332 334 331 333 335
304 301 302 301 300 299 296 298 300 301 297 297 302 303 301 301 300 300 298 297 297 295 291 296 299 291 292 297 303 304 301 303 303 305 307 309 310 311 313 313 314 316 317 319 320 321 322 324 328 330 329 327 327 330 333 335 336 336 336 334 336 335 336 336 337 337 335 337 336 334 334 333 334 334 330 330 331 331 330 330 331 331 332 334 333 331
305 304 303 303 300 297 300 301 301 301 297 301 303 303 302 302 301 299 297 297 297 293 289 293 297 289 288 298 299 301 300 300 302 304 306 308 309 310 312 313 314 315 318 319 322 322 321 324 323 327 326 322 323 325 324 332 337 336 336 334 335 334 335 336 337 337 335 337 337 334 335 333 334 330 328 328 329 330 332 330 331 329 330 331 333 332
305 311 309 304 300 301 301 302 303 303 302 304 302 300 299 299 298 299 299 297 294 287 290 295 296 294 287 294 298 297 297 301 303 304 308 309 309 310 312 312 313 314 316 318 319 322 323 325 324 327 324 323 324 324 325 325 331 334 335 335 333 335 335 336 336 335 335 336 336 334 335 333 332 328 327 327 327 329 329 328 327 329 329 329 330 332
305 305 304 305 306 304 305 301 305 304 304 302 298 298 296 295 297 297 296 297 288 286 293 297 296 295 286 291 298 303 305 305 305 304 305 307 308 309 311 312 312 314 315 316 317 320 322 324 326 328 325 321 322 325 325 326 329 329 332 333 333 334 335 335 336 335 335 335 336 336 336 333 332 329 326 327 325 325 326 326 326 330 330 329 329 331
300 301 303 305 306 303 301 300 300 303 303 301 300 297 290 287 289 285 289 285 286 285 294 297 297 293 291 295 301 303 304 306 306 306 306 307 308 309 310 311 313 313 314 315 315 317 319 321 324 325 326 324 323 324 324 323 324 326 326 327 328 330 334 334 335 334 336 336 335 336 335 335 334 330 329 327 326 326 327 327 327 327 327 327 327 328
297 301 301 301 303 305 303 296 295 296 299 299 297 295 290 285 284 282 285 288 287 293 297 296 298 291 295 299 303 303 304 306 307 308 309 308 308 309 310 311 312 313 313 314 315 316 317 319 324 325 323 319 321 322 321 322 325 325 324 325 326 326 327 329 333 334 334 334 335 336 335 335 333 331 330 330 327 328 329 328 327 326 327 326 327 327
289 292 297 299 296 304 302 300 300 298 299 299 301 298 294 291 287 281 283 281 284 288 293 297 292 286 290 291 304 306 307 307 308 309 309 309 310 311 311 312 312 313 313 314 315 315 317 320 323 324 322 320 323 325 323 322 324 325 324 325 326 325 326 328 327 328 332 332 334 334 334 334 334 330 331 333 330 328 327 327 326 327 327 328 327 327
294 294 299 303 302 304 300 303 304 301 300 301 301 300 294 292 296 288 289 289 288 289 289 292 290 294 294 301 303 308 306 306 307 307 308 308 309 310 310 310 311 311 313 313 314 315 318 321 322 325 326 326 326 325 323 322 325 324 324 326 326 327 327 328 328 329 331 327 328 332 333 333 334 333 331 332 332 331 329 328 326 328 328 329 329 328
295 294 301 302 304 302 302 304 303 304 291 297 299 293 296 302 298 292 290 295 294 289 286 293 293 295 301 304 303 304 304 304 305 305 307 307 308 309 309 310 310 312 312 314 314 314 317 317 321 321 324 326 327 326 326 326 327 326 325 324 325 327 327 327 327 329 325 324 324 324 326 330 330 331 329 329 331 329 330 329 329 329 327 328 328 326
292 292 302 300 298 302 305 304 304 304 303 300 293 297 303 305 302 294 286 288 287 284 285 292 289 289 292 287 301 301 301 302 303 303 305 307 308 307 308 310 310 312 313 314 314 315 316 317 318 320 321 325 326 326 327 326 327 327 326 326 326 327 326 326 327 328 326 325 324 326 327 325 327 328 326 328 329 329 329 330 330 329 328 326 325 324
299 291 298 300 300 302 305 304 302 304 305 300 298 306 296 288 289 296 291 283 283 282 284 289 291 291 293 290 297 297 299 300 302 303 304 305 307 307 308 309 311 312 313 313 313 314 315 317 318 320 320 323 326 327 326 327 329 328 329 328 328 327 327 327 328 328 326 325 324 325 326 326 325 326 326 327 329 329 327 327 328 327 327 326 325 324
301 292 296 300 299 301 303 300 291 296 302 304 304 301 303 299 294 290 290 291 291 284 284 284 287 285 296 296 299 298 299 301 301 303 303 304 306 307 307 308 309 310 311 312 313 314 315 316 317 318 320 319 321 322 324 326 327 325 328 327 327 328 328 326 326 327 326 326 325 325 327 326 326 326 324 325 327 327 326 325 326 326 325 326 324 323
296 302 289 297 303 301 294 298 294 296 294 295 297 296 297 298 301 299 298 293 288 286 285 284 283 289 296 302 300 300 301 302 303 303 304 305 306 307 308 308 309 310 311 312 312 313 314 315 316 317 318 318 321 321 322 322 323 325 327 326 326 327 327 326 325 326 326 327 327 327 326 326 324 324 324 324 326 326 326 326 326 326 325 325 323 323
295 297 290 296 297 295 296 301 300 300 300 297 296 294 295 294 291 288 287 298 294 290 285 285 283 289 298 304 303 302 303 303 305 305 305 306 307 307 308 309 309 310 311 312 312 313 314 315 315 315 316 318 319 320 321 325 323 322 323 325 324 325 325 325 325 325 325 326 326 325 326 324 324 324 322 324 326 326 326 326 327 327 325 324 323 322
302 299 297 292 295 295 299 303 304 303 303 301 299 295 298 297 296 291 285 289 294 294 294 291 287 288 301 303 303 303 303 304 305 306 305 306 307 308 308 309 310 311 310 311 312 313 314 314 315 315 315 316 316 319 323 322 322 323 323 325 324 324 324 325 326 326 326 324 325 324 324 325 325 324 323 324 328 326 326 325 327 327 326 324 324 322
306 299 294 296 299 301 302 304 304 305 303 299 299 300 299 294 296 294 293 295 291 292 289 288 285 289 300 304 304 304 304 304 305 306 305 306 307 308 308 308 309 309 311 312 312 313 313 314 315 314 314 314 314 316 318 321 321 322 323 323 322 321 324 324 324 325 325 324 324 322 323 324 325 325 323 321 323 323 324 325 327 325 325 324 325 322
295 298 295 290 290 294 296 299 300 303 301 296 296 298 299 299 299 299 299 299 290 292 291 288 283 288 299 304 303 303 303 303 304 305 306 305 306 307 307 308 309 309 310 310 311 312 313 312 312 312 313 314 314 315 317 317 317 320 322 322 321 322 323 323 323 323 324 324 322 324 323 323 323 322 324 323 324 323 323 323 324 325 323 323 324 323
298 297 294 287 284 283 283 285 287 289 293 296 299 297 298 297 297 295 290 292 287 292 293 288 287 293 299 301 301 301 301 302 304 305 306 306 306 306 306 307 308 308 308 309 310 311 311 311 311 312 313 312 314 315 315 316 317 317 318 323 324 322 321 322 322 322 323 323 322 322 323 323 322 322 321 322 323 323 323 322 322 323 323 322 322 323
297 300 298 294 290 288 291 293 298 298 296 292 294 296 296 298 298 298 295 290 287 291 289 291 292 292 294 297 297 299 300 300 302 303 304 304 306 306 307 307 307 308 308 308 309 310 311 311 311 312 312 313 315 315 315 316 315 316 317 319 321 322 322 322 323 321 321 322 321 321 321 322 321 321 320 320 320 321 323 324 324 322 321 323 323 322
301 297 299 298 295 295 297 296 298 297 294 295 294 294 296 296 297 296 291 288 295 291 286 293 295 292 293 296 297 298 299 300 302 302 303 304 305 306 306 306 308 307 308 308 308 308 309 310 311 312 313 313 313 315 315 315 316 316 317 318 319 320 323 323 322 321 320 320 320 319 320 321 323 322 322 321 319 319 321 322 323 323 322 322 322 323
298 293 298 297 296 297 298 297 298 297 297 296 295 295 294 296 296 294 294 296 296 289 287 293 295 293 295 296 298 299 300 300 301 302 303 304 305 306 306 306 306 306 306 307 308 308 308 308 309 311 312 312 313 314 314 314 314 316 317 316 317 319 319 323 323 322 321 320 319 319 320 321 322 321 319 318 318 318 318 321 322 323 322 321 321 320
298 294 298 297 294 295 297 297 298 296 296 296 296 296 296 295 295 295 295 296 296 294 295 295 295 295 297 297 299 300 302 302 301 303 304 303 303 305 305 305 305 305 306 306 306 307 308 309 309 311 312 313 311 312 312 314 313 313 315 316 317 318 319 322 323 323 322 321 320 320 320 321 322 321 319 317 316 316 318 319 321 322 320 322 321 319
297 292 297 298 293 295 297 298 298 297 296 294 295 296 296 296 295 296 296 296 296 295 296 296 295 294 298 301 300 302 303 302 302 301 302 303 304 304 304 304 304 304 305 306 306 307 308 308 309 310 310 311 312 312 312 313 314 316 314 315 316 317 317 318 321 321 322 322 322 321 321 320 320 320 320 318 318 318 318 317 318 320 320 321 320 319
301 294 298 297 291 292 297 298 296 296 295 294 294 295 295 295 293 295 292 296 294 293 294 294 293 293 297 301 301 301 301 301 300 301 301 302 304 304 303 303 303 304 305 305 306 306 307 307 308 309 310 311 311 312 313 313 313 314 313 314 315 318 317 318 318 320 320 320 322 322 321 320 320 319 319 319 318 317 316 315 314 316 318 319 318 318
299 295 291 293 288 288 297 298 295 295 293 291 293 296 297 297 297 297 298 298 298 298 293 289 292 298 300 301 299 299 300 300 300 301 302 303 304 304 303 302 303 304 305 305 306 306 306 307 308 309 310 310 311 311 313 313 313 313 314 314 315 316 319 317 316 315 317 317 319 321 322 321 319 319 320 320 320 319 317 316 316 316 318 318 318 317
301 299 292 296 288 288 296 295 296 291 284 286 299 302 300 296 296 294 294 297 298 299 295 298 298 300 301 300 299 298 299 299 300 303 305 304 303 303 303 302 303 304 305 306 307 307 307 308 308 309 310 311 311 311 312 314 314 315 316 315 316 315 316 317 317 318 316 316 316 316 319 322 321 320 319 320 320 320 319 318 317 317 317 318 317 315
297 297 292 296 289 287 292 293 287 282 285 299 303 303 303 300 299 297 297 298 299 299 300 299 299 300 301 301 300 300 301 302 304 304 305 305 305 304 303 302 303 304 305 305 306 307 307 308 309 310 311 310 310 313 311 311 312 313 313 315 314 315 315 316 317 317 318 318 317 318 316 318 321 318 320 320 320 319 319 319 318 318 317 317 316 315
293 293 294 291 291 292 289 288 281 284 297 301 302 302 300 301 300 299 297 299 300 299 300 298 300 301 301 301 301 301 301 302 303 305 305 306 306 305 304 303 303 304 304 305 306 308 308 308 309 310 310 312 310 310 310 310 311 311 311 312 313 314 314 314 315 314 315 316 318 316 317 316 316 318 317 319 319 319 318 318 318 317 317 316 316 315
299 298 295 291 295 286 287 286 286 294 297 298 298 299 299 295 295 294 288 292 298 300 300 299 300 300 300 301 301 301 302 301 300 301 305 305 305 306 305 305 304 304 305 307 307 308 309 311 310 311 311 311 310 309 310 311 311 311 310 310 310 311 311 313 314 314 314 314 314 317 318 317 316 316 315 316 318 318 318 318 317 317 316 314 313 313
301 295 297 291 288 290 287 286 287 286 283 291 299 303 304 303 302 302 296 292 300 302 302 300 298 299 300 300 300 301 303 297 295 298 304 306 306 305 305 306 306 306 306 306 307 308 309 310 310 310 310 310 309 310 310 310 310 310 309 310 310 310 310 309 311 312 314 315 316 316 316 319 317 316 316 317 317 318 317 318 318 317 316 314 313 312
303 301 299 293 290 290 288 285 285 283 286 297 300 302 302 302 302 301 295 289 299 302 301 301 300 300 300 299 301 301 298 293 294 298 304 306 306 306 306 306 307 308 307 307 308 307 307 309 309 308 309 309 307 308 309 308 307 307 307 308 308 309 309 309 310 310 311 312 313 317 317 317 315 316 315 315 316 317 317 317 317 317 316 315 315 313
301 299 296 293 289 291 289 287 285 288 287 297 302 302 302 304 301 298 285 286 298 302 302 302 300 300 301 301 301 299 297 292 295 300 305 306 307 308 307 306 307 307 307 308 309 309 308 308 306 306 307 307 309 310 310 307 306 307 307 307 307 307 308 309 310 311 311 312 313 316 318 319 317 315 316 315 315 316 318 319 317 317 316 315 315 314
296 295 294 290 291 290 288 288 290 290 296 303 302 302 303 303 299 286 283 291 301 303 304 303 302 302 302 301 301 297 300 301 302 305 308 308 307 307 308 308 308 308 307 308 308 308 307 306 306 304 306 306 307 307 307 306 307 307 306 307 306 305 307 309 311 311 311 312 312 312 313 316 319 318 317 316 315 316 317 319 318 318 317 315 315 314
294 294 292 293 290 289 290 288 287 290 301 304 304 303 302 298 287 286 297 304 304 302 303 304 302 302 302 301 301 301 303 306 306 307 307 307 306 306 307 307 307 308 308 308 309 309 307 306 307 306 306 307 307 307 306 306 305 305 305 306 305 306 307 307 308 310 310 311 311 312 312 313 316 323 319 315 313 314 317 319 319 318 318 316 315 314
293 289 289 289 293 293 290 288 287 284 294 306 303 301 302 290 294 300 303 303 304 303 303 303 303 303 303 302 303 304 305 305 306 305 306 307 306 306 306 306 306 305 306 307 307 308 307 306 306 306 307 307 307 307 307 307 306 306 306 304 306 307 307 307 308 308 309 310 310 311 311 312 314 315 319 320 320 315 314 316 315 316 316 315 314 314
299 289 289 292 296 288 288 286 287 295 302 307 302 293 299 301 303 304 303 301 304 304 303 302 303 304 304 303 303 304 304 304 305 305 305 305 306 306 306 306 307 307 306 307 307 307 307 306 306 306 307 307 308 307 307 307 305 306 305 305 307 307 308 307 307 307 309 310 310 311 311 311 311 313 316 317 319 318 313 315 314 314 314 314 313 312
300 297 299 291 297 291 289 292 299 303 304 307 306 305 305 306 307 305 305 303 302 302 305 303 303 305 305 305 304 304 303 304 304 306 305 305 305 305 305 306 306 306 306 306 306 307 306 305 306 306 306 307 308 307 307 307 306 305 305 307 307 306 305 306 306 306 308 309 309 310 310 310 311 311 312 315 318 318 318 314 313 312 312 312 312 311
305 304 305 299 295 302 302 302 305 303 304 304 306 307 306 306 307 307 305 303 304 304 305 303 304 305 305 306 304 304 304 305 305 305 305 305 305 305 307 306 306 307 306 306 306 306 306 306 305 305 304 306 307 307 307 307 306 305 306 307 306 306 306 305 305 305 307 308 309 309 310 310 310 310 311 312 314 318 316 316 314 311 310 311 311 311
303 304 301 295 300 296 290 303 301 302 305 305 304 305 306 306 305 306 305 305 305 306 306 306 306 306 306 306 305 305 305 305 304 305 305 305 305 305 306 305 306 306 306 305 306 306 305 304 303 303 304 304 306 306 306 306 306 306 306 306 306 306 305 305 305 306 307 307 308 308 309 309 308 308 309 310 311 312 312 313 316 312 311 311 310 309
297 304 300 300 299 295 293 301 303 304 304 305 305 304 304 305 305 306 307 307 307 307 307 307 307 306 306 305 306 305 305 305 304 304 304 305 305 305 304 304 305 305 306 306 305 305 304 304 303 303 303 303 304 305 305 305 305 306 307 306 306 305 305 305 306 306 306 306 307 307 307 307 303 306 308 309 310 309 309 311 314 312 312 310 310 310
304 303 294 298 295 298 300 302 303 304 303 303 304 305 306 306 305 306 307 307 307 306 306 306 307 306 306 305 306 305 304 304 305 305 305 305 304 304 304 304 304 304 303 303 303 304 303 303 303 303 303 303 304 304 304 305 305 306 306 306 306 305 305 306 306 305 306 306 306 306 306 307 308 307 307 307 308 309 310 310 313 315 314 314 314 312
301 297 301 299 294 293 294 298 302 294 294 301 303 304 305 307 306 305 306 306 306 305 306 305 306 307 307 307 306 305 303 304 305 305 304 303 303 304 304 303 303 302 301 302 303 303 302 303 303 303 303 303 304 304 303 304 304 305 305 305 305 306 305 305 305 305 305 305 305 306 306 307 307 307 307 307 307 307 308 302 301 305 309 312 306 302
298 302 300 295 294 293 300 302 304 303 302 303 305 306 307 307 306 304 304 305 306 306 306 305 305 305 305 306 306 305 304 304 304 305 303 303 303 304 304 303 301 301 300 302 301 301 302 303 304 303 303 303 303 303 303 304 304 304 304 305 305 305 305 305 304 304 304 304 304 304 305 306 306 306 306 307 307 307 306 307 307 294 291 292 295 296
Wind_Speed
6 7 4 8 9 6 8 8 10 10 12 13 12 12 11 11 11 8 13 10 8 6 7 9 11 11 7 9 9 11 6 10 3 5 6 6 8 5 5 5 13 13 14 13 14 12 11 11 9 9 8 9 8 8 8 7 7 7 7 7 7 5 5 4 4 3 3 3 3 2 3 3 2 3 3 3 3 4 4 3 3 3 3 2 2 2
8 6 4 7 4 8 9 10 10 10 11 13 11 11 10 11 11 12 12 8 9 8 8 9 10 10 12 10 10 10 13 7 5 8 6 6 7 8 7 10 5 14 13 16 12 12 12 10 10 9 8 9 11 8 8 8 7 6 7 6 6 5 5 4 4 4 3 3 3 3 4 3 4 4 4 4 3 3 3 2 2 2 1 3 4 2
4 8 5 5 6 7 9 12 11 9 10 11 10 10 12 10 10 12 14 11 14 10 1 6 11 11 12 13 12 7 6 4 4 10 8 13 13 12 9 14 19 12 9 13 12 13 11 11 11 8 8 9 9 10 8 8 8 7 7 6 6 5 5 5 4 5 4 4 4 4 3 3 3 3 3 4 4 3 3 1 3 2 1 2 3 4
6 2 7 8 9 10 11 10 11 12 10 8 8 7 9 11 13 10 12 12 13 3 3 7 10 9 10 7 7 14 17 14 11 12 12 13 14 14 13 13 15 10 10 10 6 10 10 10 8 7 8 8 9 9 9 9 9 8 7 6 7 6 6 5 4 5 4 4 4 3 3 3 4 4 4 4 3 3 3 2 2 3 2 0 3 3
8 9 11 9 9 10 11 11 12 10 9 9 6 9 11 12 12 13 10 16 11 10 3 7 9 9 7 4 4 11 16 17 14 14 15 14 14 14 14 14 13 11 8 5 10 5 4 6 8 8 8 8 9 10 10 9 9 7 9 8 8 7 6 5 5 5 3 4 3 4 3 4 5 4 3 3 4 3 3 4 3 2 1 2 3 1
1 9 8 9 10 10 10 8 9 9 7 10 12 9 14 16 14 15 14 15 8 5 5 9 7 6 1 7 8 11 15 15 13 14 14 14 15 15 15 13 12 10 8 3 3 4 5 6 6 8 9 8 7 9 9 9 8 8 9 10 8 7 5 5 6 4 5 4 4 4 5 5 4 4 5 5 4 4 4 4 2 3 3 3 2 3
8 9 10 10 11 11 10 8 8 7 6 6 4 12 11 13 12 11 13 11 9 6 11 15 8 2 13 15 10 14 16 13 13 15 14 13 13 15 13 10 10 8 4 6 5 2 4 4 5 6 8 9 9 8 8 9 8 9 9 9 8 7 5 6 6 6 5 6 5 5 4 4 5 5 4 4 4 4 4 4 3 3 2 4 3 3
7 10 10 11 11 10 8 7 7 9 9 7 2 8 9 11 10 10 9 6 7 9 13 16 8 2 7 10 11 14 14 12 12 11 13 12 14 14 12 11 9 10 5 1 2 6 7 5 7 8 4 5 7 7 8 7 7 9 9 9 8 7 6 6 6 7 6 6 6 6 6 6 5 5 4 4 3 4 4 4 4 3 3 4 3 2
10 10 11 9 7 7 10 11 12 11 8 8 8 6 9 9 9 8 7 4 4 4 8 11 14 6 5 7 12 12 13 12 11 12 11 10 11 11 12 9 9 8 14 12 8 4 5 7 5 4 4 8 14 10 4 5 4 6 7 9 7 7 6 6 7 7 7 5 5 6 5 5 4 5 5 3 3 3 4 4 4 4 3 3 3 3
6 8 6 3 6 8 8 9 10 11 6 6 8 9 9 10 9 8 7 5 3 5 6 9 8 4 2 3 4 10 9 6 5 8 9 9 9 11 11 11 10 10 10 9 6 7 9 9 14 11 10 5 4 3 11 12 4 5 6 7 8 8 6 6 7 6 6 5 5 5 4 4 3 6 5 4 4 4 4 4 3 3 3 3 2 3
2 5 2 1 10 8 7 11 14 12 7 4 7 5 11 10 8 7 7 6 4 7 7 10 7 7 1 5 6 5 6 2 3 4 5 4 8 6 7 12 11 10 9 9 9 8 6 6 5 4 5 6 8 6 8 8 10 7 6 6 7 6 6 6 7 7 6 5 5 4 4 5 5 6 5 5 5 4 4 4 4 4 4 4 3 3
7 5 6 5 5 6 7 11 8 12 13 14 6 6 6 4 9 6 4 5 6 5 7 2 9 13 3 1 5 4 5 7 5 6 6 7 7 9 10 6 7 7 8 7 7 7 4 4 3 3 2 1 9 7 6 7 7 7 4 4 7 6 6 6 7 7 6 5 4 4 4 4 4 5 5 6 7 6 6 5 5 4 4 4 4 3
6 7 8 8 9 12 10 10 10 9 11 7 7 6 6 2 1 1 1 2 5 4 3 4 4 8 6 4 4 4 5 7 8 7 7 6 8 7 7 10 7 8 9 7 7 6 6 6 5 4 2 3 2 5 10 10 8 7 10 11 10 7 5 5 5 6 6 6 4 4 5 4 4 5 5 6 6 6 6 5 5 4 4 4 4 4
7 11 12 8 1 11 9 8 8 7 9 7 8 6 4 1 1 1 2 3 2 5 5 4 6 5 4 1 8 8 6 6 6 8 8 9 8 8 9 8 8 8 9 9 7 8 8 8 6 5 3 2 3 1 3 8 5 2 4 4 4 5 10 10 5 5 5 6 5 4 4 4 3 4 5 4 5 5 4 5 5 5 4 5 4 4
5 3 9 11 6 8 8 8 9 8 8 6 8 8 5 4 4 3 0 1 1 3 3 1 3 1 5 1 6 8 3 2 3 7 6 5 6 5 6 6 5 6 6 7 9 7 8 8 8 4 2 4 2 4 5 6 3 4 4 5 4 6 8 7 7 9 5 5 5 4 5 4 3 4 4 3 4 5 5 5 5 5 5 5 4 4
8 4 9 10 4 7 9 6 6 11 4 6 7 4 4 5 1 1 1 4 4 1 3 4 4 3 4 8 8 10 2 4 4 5 5 6 5 7 6 6 6 6 6 6 7 8 7 8 8 5 2 1 0 3 3 6 6 5 3 2 5 6 3 4 6 7 2 8 11 6 5 4 2 2 3 4 3 4 4 4 6 5 5 4 4 4
8 3 7 9 3 6 7 8 8 9 7 8 3 7 8 6 5 1 1 1 4 4 2 3 6 5 3 3 3 2 4 6 5 6 5 6 7 6 5 6 7 7 7 6 7 8 8 9 8 6 3 1 2 2 2 3 3 4 4 5 4 3 2 1 3 5 5 2 4 10 15 10 4 3 4 4 3 4 4 4 5 4 5 5 4 5
8 8 8 7 8 8 7 9 7 6 3 5 8 8 10 4 6 3 3 0 2 2 2 2 5 6 4 1 7 2 4 4 6 5 6 8 7 7 7 8 8 9 9 11 10 9 10 9 9 7 5 3 3 2 0 2 2 3 3 3 4 3 2 2 1 2 2 2 4 5 5 8 10 3 5 5 3 4 4 4 4 4 4 6 6 5
7 6 2 5 5 8 5 5 6 11 7 8 8 4 8 4 3 4 2 3 3 2 2 4 7 6 3 2 1 5 5 7 8 8 8 9 8 7 7 8 9 8 8 9 9 9 9 9 9 7 7 5 2 2 3 0 2 2 2 3 3 3 3 3 2 4 5 6 6 6 6 8 7 5 5 5 4 4 5 5 4 5 4 5 5 5
5 6 5 6 1 3 5 8 7 8 11 8 2 6 9 2 3 4 2 5 4 1 3 3 0 2 4 5 4 5 7 7 7 7 8 7 7 7 7 7 8 8 8 9 9 9 8 8 8 8 6 7 7 7 5 4 5 5 1 3 2 3 4 2 2 3 5 7 9 8 6 8 7 6 7 6 5 5 6 7 5 5 6 5 5 5
6 5 6 9 8 3 5 7 7 6 9 8 8 10 7 5 7 6 3 4 4 3 2 5 3 3 4 4 5 5 7 7 7 7 6 6 7 8 8 8 7 8 7 8 9 9 10 10 10 9 8 7 7 7 7 7 6 4 4 5 2 1 4 3 4 4 5 4 5 5 5 6 7 9 8 6 7 6 6 5 5 5 5 5 5 5
3 7 6 8 5 7 7 9 6 6 6 4 6 8 8 10 10 9 2 6 8 6 4 5 2 2 4 4 5 6 6 6 7 7 6 7 7 8 8 8 8 7 8 7 8 9 9 9 10 10 9 7 7 7 9 8 8 5 5 3 3 3 3 2 3 5 4 4 2 2 2 4 6 7 6 6 6 6 5 4 4 4 5 5 5 6
5 4 5 6 8 6 8 8 5 3 4 6 8 9 9 8 7 5 7 8 9 5 5 5 2 3 3 2 4 5 5 6 7 7 7 7 8 8 8 9 8 7 8 8 9 8 9 9 10 10 12 11 10 5 3 1 3 9 5 3 3 4 4 4 3 4 4 4 4 3 4 6 5 4 7 8 2 3 4 4 4 4 4 5 5 5
7 5 4 4 9 4 7 11 5 8 9 4 8 10 9 8 7 6 6 7 6 9 7 3 2 1 0 2 4 4 5 5 5 7 8 7 7 8 9 9 9 9 8 8 8 7 8 8 8 9 10 11 11 10 8 6 6 2 6 6 2 5 3 3 4 3 4 4 5 4 5 2 2 3 1 6 4 3 4 5 4 4 4 4 4 6
4 4 5 6 5 5 5 5 2 10 9 6 5 7 7 8 11 9 7 2 3 8 10 4 4 2 1 3 2 3 4 7 7 7 6 7 7 7 8 8 8 8 8 9 8 8 8 8 9 10 9 8 9 9 8 9 7 7 3 2 5 4 4 3 3 4 4 4 5 6 6 3 2 2 2 3 4 4 7 8 5 4 6 6 5 5
4 5 5 5 7 7 6 5 7 7 9 7 6 8 8 11 11 9 6 6 4 9 9 6 3 1 2 1 4 6 7 8 7 8 7 7 7 8 8 8 8 8 7 7 7 7 8 8 8 9 9 10 9 8 9 8 8 8 6 4 3 4 3 2 2 4 4 4 5 4 4 3 5 5 3 2 1 1 4 8 7 3 3 4 3 4
4 7 7 4 5 5 5 6 6 8 6 8 8 7 9 8 9 9 6 5 6 7 3 3 7 1 4 5 6 7 7 9 8 7 7 7 7 7 8 8 8 8 8 9 7 6 7 7 7 8 9 9 8 8 7 8 9 6 6 6 5 3 3 3 2 3 4 4 4 5 5 5 6 7 6 3 1 1 2 2 3 7 5 2 3 3
5 6 3 5 5 7 6 7 5 4 7 6 10 10 7 7 7 7 4 5 8 8 3 4 2 6 3 5 7 8 7 7 5 6 7 7 7 7 6 6 9 9 9 9 10 10 10 9 9 8 8 8 9 8 9 8 8 9 5 4 5 3 2 2 3 5 5 4 5 5 6 6 5 4 4 3 4 5 4 4 3 4 5 4 2 1
6 4 6 6 4 9 3 3 3 6 7 7 7 6 5 6 7 6 6 7 6 3 5 7 6 6 4 6 8 9 8 6 6 4 3 4 7 8 8 8 8 8 8 9 10 10 10 11 10 10 10 10 10 8 9 9 9 7 7 8 5 3 2 3 4 5 6 5 6 7 7 6 6 6 6 6 7 8 8 6 6 6 6 6 4 3
5 3 7 8 9 5 8 4 1 4 5 6 6 6 6 6 5 6 7 5 6 7 6 6 7 4 3 4 6 7 8 9 8 5 7 9 9 9 9 9 9 9 9 9 10 10 10 10 11 10 10 10 12 11 11 9 10 11 9 8 8 9 5 1 3 5 6 6 6 7 8 7 7 6 7 8 8 9 8 8 7 6 6 7 5 5
3 0 3 6 5 7 4 5 0 4 5 8 5 6 6 4 6 6 5 6 6 9 5 6 10 2 4 3 6 7 7 8 8 8 12 10 10 10 10 9 9 10 10 10 9 10 10 10 10 10 11 12 11 11 11 9 10 9 10 8 8 8 11 9 3 3 5 7 7 7 8 8 8 8 9 9 9 8 9 9 8 7 6 6 6 5
5 4 8 8 4 2 5 2 1 3 5 6 8 5 4 6 7 5 4 6 6 7 8 9 7 4 2 3 6 6 8 8 9 10 9 9 9 8 7 8 9 10 10 10 10 10 11 11 11 11 11 12 12 12 11 11 11 10 10 10 10 6 6 9 11 9 8 7 6 6 7 7 8 8 8 9 10 11 10 9 9 7 6 6 4 5
5 6 4 5 4 4 8 5 2 3 5 6 4 3 4 5 6 6 5 5 6 5 6 4 5 2 7 7 7 7 7 8 7 7 7 7 8 8 9 8 9 9 9 10 10 10 10 10 10 9 10 11 11 11 12 11 10 10 10 10 9 9 6 5 3 6 8 9 12 8 6 7 7 8 8 9 8 8 7 8 9 8 6 6 6 4
4 4 4 5 4 5 2 2 6 5 6 2 1 7 4 4 6 8 7 7 4 3 6 5 3 4 6 7 7 9 9 8 6 7 6 4 6 8 10 9 8 7 9 9 9 9 10 9 9 8 9 9 10 11 11 10 10 9 9 8 7 7 7 4 5 5 5 7 8 11 11 5 6 8 8 8 8 8 8 8 9 9 8 6 6 7
5 4 4 6 4 4 6 6 4 5 3 5 4 5 4 2 4 5 8 8 10 7 6 6 4 4 5 7 8 8 8 7 7 6 4 5 6 7 9 9 11 10 9 9 9 9 9 9 9 8 8 9 9 8 9 10 10 10 10 9 8 7 7 5 6 6 5 2 4 5 8 11 4 6 6 5 6 6 7 8 6 6 7 7 7 8
3 3 3 4 3 4 4 3 5 3 4 7 5 6 3 1 4 3 6 8 8 7 4 3 2 3 5 7 7 6 8 5 3 7 4 3 7 8 8 8 9 9 10 8 8 7 7 9 9 9 8 8 10 9 10 9 9 9 10 10 10 8 8 7 5 6 5 6 4 5 3 2 3 3 5 4 5 6 7 7 7 7 6 7 8 7
3 6 3 4 4 5 3 5 6 4 6 6 4 3 1 3 6 5 5 8 6 1 4 4 4 2 4 7 6 7 8 8 6 4 6 3 5 6 8 11 9 9 7 7 8 8 8 7 9 9 8 7 9 10 9 9 9 9 10 10 10 10 10 8 7 6 6 6 7 5 3 2 3 0 6 9 5 6 6 6 6 6 5 6 5 7
2 5 5 4 1 2 5 6 5 4 5 4 2 7 4 4 2 3 3 9 8 1 4 5 2 4 6 4 7 9 7 8 4 6 2 2 5 3 4 8 8 9 10 9 8 8 9 8 8 9 7 8 8 8 9 9 10 9 9 10 10 10 10 11 11 9 8 6 5 5 4 2 2 6 7 8 8 5 4 4 4 5 6 7 8 8
3 3 4 3 4 4 4 5 4 5 2 5 8 5 5 1 1 2 4 2 8 4 7 3 4 7 8 9 11 10 7 8 5 5 4 6 7 8 8 7 8 7 8 7 6 8 9 8 9 9 8 8 8 9 9 10 11 12 11 11 11 12 11 10 10 11 10 10 9 5 3 3 1 1 4 10 9 3 5 4 4 4 5 6 6 7
5 5 3 4 4 6 5 4 5 3 1 5 6 5 4 6 1 4 4 2 5 7 9 9 8 8 9 7 7 6 7 7 6 6 6 6 7 6 6 8 8 8 9 8 7 7 7 6 8 8 6 6 4 5 4 6 8 9 10 11 12 11 11 11 11 11 10 10 10 6 1 2 3 1 2 2 5 10 7 3 4 5 6 6 5 6
6 4 3 5 4 6 4 5 4 2 3 6 6 5 3 3 3 2 2 4 4 8 5 4 6 6 6 7 6 7 5 5 6 7 6 7 6 6 7 7 7 8 8 8 7 7 8 8 9 8 9 11 10 12 13 9 5 5 6 6 8 11 11 12 12 11 11 10 9 10 10 6 2 0 1 2 3 5 7 3 4 5 6 6 6 6
5 2 4 5 6 5 4 4 3 1 5 4 3 5 1 1 2 3 2 5 1 4 5 6 8 8 6 4 5 5 6 6 5 6 6 6 7 7 7 7 7 7 6 7 6 7 7 8 9 10 11 11 12 13 12 12 14 14 10 7 9 10 11 12 13 11 11 10 10 10 9 7 5 2 4 3 4 7 8 4 3 4 5 5 6 8
1 2 3 5 6 3 3 5 6 3 1 2 5 3 2 1 4 2 3 3 4 7 7 6 4 5 4 3 3 4 6 6 6 6 7 6 7 8 7 7 6 7 8 8 8 9 8 8 9 10 10 10 9 10 10 11 11 12 10 11 9 7 9 11 12 13 12 10 9 9 10 9 6 5 2 3 5 4 5 5 5 4 4 6 6 6
5 3 3 3 6 4 4 4 2 0 2 5 3 3 1 2 6 6 7 9 7 4 7 7 7 7 6 4 5 6 7 8 7 8 7 6 6 8 6 6 6 7 7 8 9 9 9 9 9 9 8 8 7 7 9 10 10 9 10 12 13 9 8 10 12 13 11 8 8 9 9 10 10 7 3 3 2 4 3 1 5 6 4 3 4 4
4 2 2 3 4 3 3 5 5 5 2 6 5 3 5 5 3 3 4 6 7 6 3 6 4 4 4 5 6 7 7 7 7 8 9 7 7 7 7 7 7 8 9 8 8 9 9 10 9 10 10 9 8 7 8 9 10 11 11 9 10 12 11 10 11 11 10 9 8 9 11 11 10 9 7 3 2 1 2 3 2 1 6 4 5 5
6 4 3 2 4 3 7 9 2 3 3 5 2 4 5 6 6 2 4 6 6 5 4 6 7 6 6 6 6 7 6 8 8 8 7 7 8 7 7 8 7 8 9 10 9 9 9 9 9 11 11 10 9 9 8 8 9 10 9 9 9 10 10 10 11 11 10 8 8 9 10 11 11 10 8 7 4 3 3 4 5 6 5 5 7 7
9 9 5 3 2 3 2 7 4 6 6 3 3 4 3 4 6 3 5 5 4 3 3 3 5 6 7 6 6 6 3 6 7 8 7 7 8 9 9 9 8 8 8 9 9 9 9 10 10 11 11 11 9 8 10 9 9 8 9 10 11 11 11 11 11 9 8 9 9 9 9 10 9 8 7 6 5 6 5 5 3 5 4 4 5 7
4 3 5 5 5 6 5 7 7 8 7 6 5 2 6 5 3 3 3 5 6 3 3 5 5 6 4 5 6 6 6 7 8 8 8 8 9 8 9 9 9 8 7 8 9 10 10 10 11 11 11 11 10 10 10 10 10 9 9 10 10 11 11 10 9 9 10 11 10 9 9 9 11 11 8 6 6 6 6 5 5 5 6 6 7 7
5 4 3 4 6 6 9 7 7 6 2 4 11 6 3 4 6 5 6 5 3 3 4 6 5 6 5 5 5 6 8 8 8 8 8 8 8 8 8 9 9 10 10 12 11 10 10 10 11 11 11 10 10 11 10 10 10 9 9 10 10 11 10 8 9 10 10 9 9 10 9 8 8 9 9 9 8 7 6 6 3 3 4 7 6 8
3 7 6 6 5 4 2 5 6 3 2 6 6 2 3 7 5 3 1 1 4 6 5 6 6 4 4 4 5 6 7 8 8 8 9 8 9 9 9 9 9 11 12 11 10 11 11 11 10 10 10 10 9 10 11 10 10 9 10 10 9 9 9 9 10 10 10 9 9 9 8 7 8 8 8 8 8 8 7 8 9 7 6 5 9 14
7 5 5 4 3 4 8 8 4 2 5 5 4 5 4 4 8 7 2 1 4 6 5 5 6 6 5 5 5 7 7 6 7 8 9 9 9 8 8 9 10 11 10 10 10 10 10 9 8 9 9 9 9 10 10 9 10 10 10 10 10 9 9 10 9 9 9 9 8 9 8 8 8 8 9 8 7 6 6 6 7 7 10 9 12 14
Wind_Direction
358 282 324 7 274 328 335 342 328 327 317 309 296 292 284 285 275 262 262 177 178 269 234 224 237 263 261 223 209 229 208 131 144 275 271 226 257 213 213 180 153 155 141 131 131 138 142 146 143 136 138 140 141 144 156 154 157 152 152 145 150 141 135 156 155 157 151 146 137 139 130 106 132 89 76 61 79 84 48 43 89 111 135 93 53 66
256 289 240 235 288 3 321 319 312 312 310 301 289 271 272 263 266 264 262 171 202 212 244 245 275 250 225 236 268 235 213 127 195 196 223 276 354 2 24 21 353 109 115 126 137 140 141 148 151 146 143 150 147 154 157 163 158 160 148 154 138 142 164 168 173 141 142 150 140 161 156 165 130 149 159 131 118 107 106 99 71 63 57 141 135 126
306 277 32 288 327 320 326 311 298 300 303 309 304 313 296 270 290 270 250 195 164 169 229 283 246 231 256 250 208 224 120 145 95 43 32 36 21 25 36 76 47 39 89 133 133 142 148 150 156 152 145 151 153 153 168 169 158 167 150 161 151 162 177 186 168 153 164 180 145 191 161 155 122 65 71 89 85 93 111 110 129 89 3 312 138 159
266 60 50 6 337 319 303 316 331 315 313 300 316 302 289 329 340 334 321 304 246 225 217 226 256 262 242 236 285 65 46 28 47 40 27 32 29 22 40 70 92 80 354 336 147 143 147 154 152 144 158 161 155 162 172 177 170 168 163 168 169 172 185 189 163 169 176 142 164 124 137 105 125 121 104 103 111 124 127 91 63 111 170 20 48 18
314 5 29 347 320 326 330 332 327 328 316 323 27 341 317 340 336 318 317 319 299 174 243 284 282 283 270 225 235 88 58 58 42 44 28 24 25 30 36 53 88 105 107 310 319 16 113 165 172 166 171 171 166 174 174 177 176 169 169 170 174 178 188 175 166 175 141 131 138 108 108 82 87 110 131 156 157 133 121 143 142 137 152 121 117 95
328 54 6 341 345 332 330 325 8 6 346 338 347 358 316 312 333 330 335 332 315 294 266 251 254 247 319 339 33 63 65 55 47 43 33 23 21 28 23 23 50 65 98 167 194 157 251 211 191 175 177 177 181 184 176 174 177 171 169 168 173 186 184 172 173 166 140 157 148 144 142 146 154 154 175 172 139 161 184 123 110 114 104 73 75 87
343 360 18 356 331 339 326 344 19 343 320 302 281 313 313 313 313 315 335 356 342 340 335 321 274 64 35 21 18 70 67 63 50 45 39 30 32 25 18 15 26 74 60 188 196 284 241 176 217 213 193 187 181 197 174 176 174 181 169 169 175 184 180 169 181 154 164 170 160 169 171 164 181 164 185 150 163 141 109 124 126 102 104 110 75 78
350 346 359 2 339 326 346 3 352 319 311 302 104 263 291 286 281 288 321 305 318 332 291 319 282 238 49 39 31 50 56 52 49 53 48 38 38 29 24 17 19 13 359 237 187 187 223 190 191 216 233 219 203 182 179 182 174 185 171 172 178 180 185 168 184 158 187 177 169 179 191 176 191 179 144 127 123 126 127 131 134 143 137 123 126 115
50 6 356 344 3 350 2 352 328 320 307 322 313 272 264 272 292 299 272 284 280 330 303 290 323 260 82 37 21 41 44 33 39 40 37 37 28 43 29 21 16 54 68 46 33 27 355 336 300 151 229 32 339 336 245 188 193 185 178 172 186 179 185 168 183 171 194 191 176 191 202 173 195 135 127 136 140 131 144 158 168 149 124 112 120 115
70 28 8 340 20 360 1 321 320 283 294 336 321 312 293 277 257 260 279 270 259 276 262 265 299 61 154 62 57 56 60 39 37 49 56 29 31 24 22 29 38 31 38 56 51 24 11 357 354 357 69 97 207 203 312 298 207 208 185 180 192 181 185 172 180 185 195 196 184 198 208 179 161 125 148 157 157 151 159 165 143 122 141 130 134 146
164 123 171 209 10 13 333 330 314 10 351 311 294 358 358 327 323 289 235 233 244 243 255 259 264 70 113 25 18 31 55 107 47 47 19 31 23 45 52 26 26 49 37 44 37 34 7 26 346 151 143 192 224 199 193 225 249 206 202 186 201 185 188 167 181 197 196 205 193 209 200 196 155 150 162 156 165 152 176 160 153 165 160 163 145 118
145 191 176 94 76 23 327 332 12 7 356 7 350 6 313 33 345 280 266 233 238 234 231 95 57 77 106 86 350 63 76 47 45 58 44 30 37 18 10 35 27 28 79 85 61 53 42 4 339 350 71 211 300 306 327 309 320 314 275 217 196 200 202 176 177 198 205 207 206 207 209 205 160 170 176 168 172 170 180 166 171 169 158 139 133 146
113 69 40 2 55 23 2 331 33 345 16 347 336 19 354 6 195 216 227 227 230 235 60 19 135 63 67 132 213 97 64 54 52 37 42 37 42 24 29 27 9 3 11 17 74 59 36 43 37 348 34 147 261 325 358 355 353 345 346 342 314 290 246 196 191 195 207 212 206 209 208 207 164 184 190 174 181 179 176 163 172 160 161 143 156 157
81 61 40 3 356 24 11 5 3 341 15 359 356 2 358 21 42 57 359 342 29 278 341 332 91 83 123 214 2 342 8 41 40 65 37 28 38 27 27 17 18 12 6 349 6 35 40 28 49 21 56 322 291 30 274 269 257 222 236 204 194 260 300 313 285 211 222 226 220 212 219 207 177 195 204 182 186 184 168 163 164 166 162 162 168 166
315 221 51 12 31 6 22 33 346 342 344 6 353 346 6 35 348 43 104 353 6 56 314 319 243 98 179 301 256 250 59 21 19 68 69 17 28 30 30 27 21 31 19 3 356 3 39 30 62 90 345 292 222 163 210 233 222 265 266 269 256 232 200 201 257 277 245 232 231 218 227 214 186 205 219 210 190 182 165 172 158 174 160 172 159 166
327 3 15 28 27 24 24 357 12 344 334 25 5 311 31 33 113 2 189 236 324 349 95 43 58 141 120 217 230 250 55 30 30 51 17 27 32 20 21 19 5 20 21 1 358 352 26 38 45 86 86 106 169 175 221 243 232 223 236 358 334 319 318 291 257 253 339 7 313 282 234 230 214 216 226 240 202 174 167 177 170 174 161 151 154 140
336 21 53 5 284 56 49 301 76 12 352 338 313 18 6 333 330 323 196 227 249 253 63 135 113 98 161 202 216 36 36 40 31 18 31 37 24 17 16 359 8 7 0 358 358 1 8 18 32 31 56 59 352 3 187 237 221 214 213 226 241 239 260 336 353 11 51 201 319 334 320 316 273 236 228 233 209 177 175 174 180 167 155 150 141 129
330 320 331 10 7 51 42 11 14 73 17 360 359 354 317 353 317 342 342 311 225 31 67 165 129 142 206 95 285 25 44 11 26 1 39 31 16 13 6 7 13 14 4 352 10 0 1 6 5 21 12 1 20 349 128 277 251 222 236 255 253 252 236 250 227 132 133 261 245 231 231 260 264 240 237 235 210 187 184 179 181 160 160 151 143 144
343 320 359 50 336 25 236 240 61 4 15 52 8 4 331 13 353 41 323 3 352 78 150 64 87 88 86 111 154 41 15 21 11 350 17 24 21 15 15 11 3 16 4 4 12 11 2 4 353 5 359 7 341 284 338 145 226 219 217 222 247 292 270 235 147 140 168 198 230 226 226 242 246 221 237 233 204 193 194 191 182 177 159 153 149 150
317 297 320 167 263 11 40 23 22 356 336 30 296 59 17 66 281 328 349 327 312 331 115 124 213 93 31 56 31 33 15 20 15 6 15 15 17 8 17 13 4 13 6 5 6 8 7 358 354 350 0 31 343 354 1 351 339 321 263 235 180 179 237 232 202 188 198 202 220 226 220 236 242 226 229 220 197 193 199 194 190 178 161 163 152 151
317 322 303 333 341 204 44 12 39 353 345 15 354 30 8 7 347 316 297 328 353 344 346 167 163 99 76 17 25 30 14 26 17 15 11 20 18 14 14 13 10 9 11 10 1 6 0 4 354 356 1 9 29 16 352 350 322 327 329 335 8 215 284 274 245 233 232 223 233 224 229 235 239 238 228 220 190 193 201 199 195 178 169 159 162 158
330 342 335 313 321 51 59 48 30 359 350 329 360 38 359 5 4 359 360 28 346 18 341 337 78 103 70 353 22 18 29 23 29 21 26 19 24 22 15 15 11 11 6 11 6 9 1 3 355 356 2 2 34 41 357 336 327 330 336 355 3 298 287 278 251 232 220 241 273 297 314 322 269 239 229 224 193 191 204 206 195 171 175 170 170 169
9 318 290 303 323 42 61 95 61 20 303 319 27 33 337 44 7 356 337 354 329 360 339 104 134 84 41 49 15 32 31 36 23 23 25 20 18 25 25 17 24 13 7 6 9 11 6 3 359 360 1 4 15 35 91 22 328 332 320 346 330 288 294 310 290 235 204 225 274 358 357 300 301 336 340 316 261 213 227 223 201 183 181 176 184 174
333 264 317 313 318 99 131 151 113 21 335 359 40 36 1 11 22 350 316 322 323 355 355 332 85 200 352 55 47 32 45 41 34 27 25 27 11 15 14 20 21 15 10 15 11 16 2 1 3 8 4 4 3 5 11 355 29 340 349 336 310 293 294 304 306 270 239 179 159 193 265 281 306 334 354 290 257 277 266 247 203 195 184 192 198 186
319 6 321 298 289 255 181 149 105 21 1 17 355 11 11 9 358 347 302 320 300 37 348 331 50 105 186 85 84 22 60 43 20 22 23 19 13 12 5 11 10 14 16 17 12 18 3 359 5 5 4 4 358 359 354 351 9 18 37 17 324 337 338 323 321 307 284 233 198 181 179 194 105 6 357 21 360 268 238 233 211 196 198 200 204 199
283 298 331 336 352 350 8 346 350 352 351 311 25 350 9 1 2 344 349 350 344 11 14 26 83 96 64 24 45 32 24 47 20 7 11 19 4 5 2 357 0 4 6 18 14 11 4 7 6 6 2 358 354 0 351 348 356 3 17 348 352 324 327 297 268 310 303 292 262 233 209 177 173 204 204 186 190 70 340 335 309 270 240 223 191 229
304 324 317 0 329 335 351 1 338 9 321 331 349 7 360 349 4 344 337 17 2 331 42 23 346 30 70 36 9 24 11 20 13 8 6 4 358 5 359 353 354 355 360 3 4 6 1 8 9 3 0 349 353 1 353 339 340 4 360 355 341 343 327 332 314 264 264 271 269 254 234 222 207 203 207 201 250 303 308 299 306 302 285 269 237 224
279 293 84 321 336 288 349 316 1 304 293 323 347 341 353 333 0 352 3 3 359 318 93 44 341 342 22 16 3 10 28 7 356 9 1 355 1 352 2 347 353 351 354 354 0 3 6 3 1 3 356 350 348 355 343 346 348 347 340 345 349 356 301 270 273 274 266 245 258 259 242 229 230 238 225 184 223 260 261 258 255 264 285 297 311 140
329 309 56 314 320 321 340 283 347 357 327 324 318 312 294 355 322 348 333 347 339 350 332 346 346 4 7 12 5 350 358 353 345 52 0 14 4 354 355 354 355 357 354 359 358 2 0 3 3 358 355 348 345 347 338 339 341 340 329 335 343 333 276 247 244 252 245 237 227 239 239 227 221 210 205 206 218 229 245 244 229 219 227 249 250 235
330 315 356 323 317 278 252 168 22 310 310 294 286 292 322 315 315 312 322 337 328 303 304 318 310 344 37 1 341 348 344 338 339 348 7 20 11 356 344 358 1 357 2 2 8 2 6 6 4 355 357 350 344 343 339 341 337 341 339 355 346 333 328 164 235 246 252 245 236 230 231 221 218 215 217 221 221 225 231 237 231 217 219 207 216 214
301 292 35 317 289 274 125 117 353 281 295 287 276 286 304 306 315 320 316 314 332 297 307 335 313 324 73 353 341 351 345 333 331 356 38 18 6 357 349 2 4 2 359 3 5 1 9 4 3 1 356 353 342 346 340 339 345 351 338 340 333 333 334 337 304 256 243 251 250 236 228 224 218 215 210 212 216 218 227 230 232 227 224 219 202 210
220 305 310 277 263 314 127 197 187 278 287 283 285 291 281 306 312 324 337 328 310 310 323 314 301 16 154 319 331 334 339 335 336 342 10 16 358 349 345 357 11 5 5 359 4 0 7 6 6 1 356 347 348 347 344 345 344 341 342 338 337 344 351 352 337 323 311 295 248 233 220 219 223 219 219 211 209 210 222 229 241 238 226 212 199 198
12 320 305 326 329 323 146 263 101 307 280 266 357 320 204 261 242 253 258 266 268 298 287 289 300 304 340 328 316 325 336 327 338 0 29 8 342 334 326 9 10 2 7 358 4 359 6 7 1 359 357 348 352 344 348 345 343 337 328 334 343 347 358 350 338 336 326 321 316 289 208 200 210 225 224 225 221 210 210 215 222 240 239 215 184 159
317 314 303 311 298 311 116 359 301 275 298 8 94 40 27 356 334 315 299 314 307 217 265 290 304 339 308 314 320 328 330 334 7 48 62 358 333 332 333 7 344 26 4 4 3 359 2 3 355 357 357 347 349 347 344 343 345 332 326 334 352 338 331 330 332 324 343 359 350 329 303 240 218 222 221 218 220 220 215 209 212 213 214 197 172 178
311 326 303 324 306 290 313 282 294 290 356 104 97 61 58 7 340 313 311 304 301 306 291 287 339 327 317 307 315 320 315 335 62 66 37 6 340 338 346 343 354 27 10 359 355 356 353 355 346 346 352 347 348 345 343 350 348 339 335 342 334 320 322 335 332 331 332 27 323 310 344 321 318 308 282 228 217 218 225 222 217 212 203 198 196 188
319 297 307 298 276 269 273 283 274 348 153 151 97 117 92 177 181 285 273 270 269 272 249 289 317 281 294 295 306 321 304 329 4 88 55 7 342 336 336 327 358 353 355 349 354 353 346 349 341 340 346 342 341 348 346 345 337 339 336 342 337 338 336 337 340 329 334 330 316 317 335 318 316 327 299 256 229 209 200 197 201 204 202 193 193 184
294 303 292 299 333 313 322 297 290 299 158 127 156 167 114 10 18 342 319 295 322 329 304 278 230 245 293 299 327 315 318 333 297 79 92 343 346 328 329 323 337 336 341 340 345 347 344 345 337 335 330 345 336 345 342 337 339 336 342 340 339 340 338 336 338 330 323 321 319 297 271 284 293 287 277 273 237 209 217 221 211 207 175 158 153 181
287 285 349 330 319 333 308 317 308 320 312 164 220 92 83 84 360 322 287 288 253 78 44 17 307 250 269 303 327 335 338 312 324 115 73 340 314 301 303 312 328 330 327 331 352 341 344 338 332 324 332 348 342 352 339 340 337 338 345 335 336 336 338 338 339 333 320 301 299 310 330 307 330 290 277 238 230 214 207 199 207 184 168 172 170 181
203 268 268 284 292 289 296 301 305 299 56 56 112 106 88 341 71 333 284 322 40 97 130 242 310 346 334 347 8 4 336 303 351 41 28 327 334 339 337 339 335 333 324 329 340 346 338 342 329 329 340 349 341 348 343 345 342 348 341 336 339 334 336 339 334 328 333 332 325 312 333 337 199 155 351 323 321 266 196 199 201 178 169 179 181 184
218 205 205 245 258 244 263 285 300 332 50 121 129 124 90 73 107 289 285 93 309 19 360 15 7 14 7 347 344 330 302 317 345 353 350 321 323 318 330 334 331 332 336 346 349 346 321 334 322 328 317 310 325 296 319 335 349 343 338 343 341 335 334 331 328 326 330 333 328 332 270 295 318 16 62 7 291 286 265 199 187 188 185 182 191 187
193 225 209 262 277 293 256 265 285 99 75 101 100 91 74 90 355 264 300 45 1 343 326 310 313 326 341 329 341 310 11 347 324 314 320 317 313 330 330 326 336 336 345 343 353 342 322 318 303 320 344 345 340 342 336 328 337 330 326 343 339 336 331 327 326 328 326 321 323 330 334 333 265 215 127 217 262 297 281 251 197 195 191 190 192 188
284 284 258 228 241 264 316 303 291 340 69 87 90 102 55 246 283 357 93 231 341 281 314 345 349 325 318 339 346 326 318 315 306 309 306 325 330 322 325 335 343 342 351 334 327 312 324 334 337 338 340 336 337 332 330 342 337 329 338 357 345 336 332 327 325 318 316 317 326 326 317 319 320 210 195 213 261 287 274 246 220 236 212 195 192 192
3 298 301 309 325 304 322 308 313 295 110 258 126 166 61 313 16 6 316 291 299 322 328 311 274 292 341 7 338 296 301 313 321 329 327 324 336 325 331 335 2 329 334 331 333 337 348 334 330 334 334 333 331 333 333 333 326 320 330 330 316 320 328 326 317 318 318 319 318 313 310 306 304 298 266 228 193 130 274 303 276 227 205 216 214 198
89 280 288 317 47 322 310 309 7 155 183 160 207 307 113 6 12 351 348 325 15 350 302 313 330 34 3 345 313 315 315 313 323 328 318 335 315 303 319 316 322 330 331 331 336 342 348 326 325 323 321 315 318 323 320 313 310 315 322 316 324 332 340 329 324 313 313 321 319 313 314 312 308 299 283 277 257 169 219 28 292 274 236 205 200 209
101 2 38 296 342 295 308 314 349 13 121 176 217 280 309 312 306 301 306 284 284 281 315 284 316 12 328 317 308 305 314 320 350 322 305 315 306 307 319 327 330 344 341 342 340 337 332 328 322 318 311 313 314 314 312 312 310 312 306 315 321 323 328 330 321 315 315 325 327 319 311 305 305 315 317 318 355 24 165 182 171 264 281 242 209 201
144 133 141 265 271 22 296 267 298 251 306 313 225 230 237 242 257 264 305 310 308 333 352 329 341 314 312 308 306 302 329 344 311 287 305 310 310 320 331 334 352 356 336 334 331 333 323 322 322 312 314 320 328 324 321 312 308 306 311 316 317 321 328 326 319 312 317 323 321 314 310 307 312 307 311 324 306 253 231 206 170 166 196 255 257 219
154 146 148 242 321 317 314 98 259 274 147 204 254 286 286 295 291 278 268 272 285 5 30 324 309 308 310 320 298 299 288 255 278 306 310 311 317 329 338 345 342 336 334 330 330 325 325 327 311 312 316 321 328 327 319 312 311 316 323 326 325 320 318 317 312 314 320 325 322 316 310 306 301 306 307 300 304 300 296 276 184 152 154 181 229 245
85 42 274 252 271 270 278 293 297 291 254 214 215 244 315 323 293 287 304 51 45 20 327 311 307 293 321 303 317 318 330 315 313 317 319 322 326 335 337 339 338 335 347 344 330 325 317 313 319 326 336 332 330 322 320 319 322 326 329 329 325 319 324 330 336 341 335 329 324 313 311 308 302 304 307 313 317 312 306 296 121 193 197 205 206 209
113 147 273 319 294 300 289 308 354 337 346 35 46 7 317 306 314 52 54 3 332 315 319 316 319 323 333 323 326 317 312 315 316 319 321 326 333 337 345 342 344 354 351 337 328 325 325 328 330 332 328 326 323 324 327 326 325 327 328 323 316 315 319 335 339 330 324 322 317 315 316 317 334 336 329 328 321 316 313 310 279 253 208 214 193 179
218 251 266 256 253 256 321 41 330 313 320 338 11 358 321 317 351 40 341 326 310 300 301 305 326 339 315 314 309 304 306 316 318 328 328 333 331 339 340 348 359 351 337 329 331 332 331 329 329 327 327 324 332 327 322 318 321 327 324 317 314 327 340 340 332 326 321 322 318 316 319 325 319 311 312 311 311 315 316 333 347 11 336 302 217 206
248 259 268 269 285 300 354 332 14 322 312 309 357 358 9 308 292 292 254 266 281 273 293 326 313 314 294 279 283 302 310 316 321 322 322 330 325 348 348 1 351 335 324 329 327 321 317 314 319 327 329 332 329 320 319 323 323 321 321 327 327 337 339 330 325 318 313 315 314 314 309 311 315 315 306 301 300 300 320 333 333 65 82 67 357 337